Back to catalog

STARLINK-4777

AliveCommunicationsVLEO
NORAD 53847·PAYLOAD·🇺🇸 United States

Launched Sep 19, 2022 from Cape Canaveral Space Force Station

Loading…

Next Passes (next 24 hours)

TLE

FreshSource: CelesTrak SupGP

Epoch: Sep 14, 2026, 13:15 UTC

1 53847C 22114AF  26257.55256944  .00030459  00000+0  19106-2 0  2575
2 53847  53.1582 165.5861 0001547  94.4197 294.9799 15.08809693    15

Track STARLINK-4777 in real time with AllMySat

Download on the App Store